• en France
  • Liste des pays
  • À 7 jours
  • Température de l'eau
  • Carte satellitaire
  • Carte météo
  • Widgets météo
  • user-avatar
    Se connecter

    Météo par heure à Zalaegerszeg

    Ce jour, 21 Juillet, Samedi

    Heure Température Précipitation Vent Pression Humidité
    00:00 +19°C° 0,1 mm 0 m/s 746 mmHg 79%
    01:00 +19°C° 0,1 mm 0 m/s 746 mmHg 81%
    02:00 +18°C° 0 mm 0 m/s 745 mmHg 83%
    03:00 +18°C° 0 mm 0 m/s 745 mmHg 84%
    04:00 +18°C° 0 mm 0 m/s 745 mmHg 85%
    05:00 +19°C° 0 mm 0 m/s 745 mmHg 80%
    06:00 +23°C° 0 mm 1 m/s 745 mmHg 75%
    07:00 +24°C° 0 mm 1 m/s 745 mmHg 70%
    08:00 +25°C° 0,1 mm 1 m/s 745 mmHg 66%
    09:00 +26°C° 0,1 mm 1 m/s 745 mmHg 63%
    10:00 +27°C° 0,1 mm 2 m/s 745 mmHg 59%
    11:00 +29°C° 0,1 mm 2 m/s 745 mmHg 55%
    12:00 +30°C° 0,1 mm 2 m/s 745 mmHg 50%
    13:00 +31°C° 0,1 mm 3 m/s 745 mmHg 45%
    14:00 +33°C° 0,1 mm 3 m/s 744 mmHg 44%
    15:00 +33°C° 0,1 mm 3 m/s 744 mmHg 44%
    16:00 +33°C° 0,1 mm 4 m/s 744 mmHg 43%
    17:00 +31°C° 0,2 mm 3 m/s 743 mmHg 49%
    18:00 +29°C° 0,2 mm 3 m/s 743 mmHg 55%
    19:00 +28°C° 0,2 mm 2 m/s 743 mmHg 61%
    20:00 +26°C° 0,3 mm 2 m/s 743 mmHg 66%
    21:00 +24°C° 0,3 mm 2 m/s 743 mmHg 71%
    22:00 +23°C° 0,3 mm 2 m/s 744 mmHg 76%
    23:00 +21°C° 0,2 mm 2 m/s 743 mmHg 78%

    Demain, 22 Juillet, Dimanche

    Heure Température Précipitation Vent Pression Humidité
    00:00 +21°C° 0,2 mm 2 m/s 743 mmHg 80%
    01:00 +20°C° 0,2 mm 2 m/s 743 mmHg 82%
    02:00 +20°C° 0,1 mm 2 m/s 743 mmHg 83%
    03:00 +20°C° 0,1 mm 1 m/s 743 mmHg 85%
    04:00 +20°C° 0,1 mm 1 m/s 743 mmHg 86%
    05:00 +20°C° 0 mm 2 m/s 743 mmHg 82%
    06:00 +21°C° 0 mm 2 m/s 743 mmHg 78%
    07:00 +23°C° 0 mm 2 m/s 743 mmHg 74%
    08:00 +25°C° 0 mm 2 m/s 743 mmHg 66%
    09:00 +27°C° 0 mm 3 m/s 743 mmHg 59%
    10:00 +29°C° 0 mm 3 m/s 743 mmHg 52%
    11:00 +30°C° 0,1 mm 3 m/s 743 mmHg 49%
    12:00 +31°C° 0,1 mm 2 m/s 743 mmHg 45%
    13:00 +32°C° 0,1 mm 2 m/s 743 mmHg 42%
    14:00 +32°C° 0,1 mm 2 m/s 742 mmHg 43%
    15:00 +31°C° 0,1 mm 2 m/s 742 mmHg 44%
    16:00 +31°C° 0,1 mm 2 m/s 742 mmHg 44%
    17:00 +30°C° 0 mm 2 m/s 742 mmHg 50%
    18:00 +28°C° 0 mm 2 m/s 742 mmHg 56%
    19:00 +27°C° 0 mm 2 m/s 742 mmHg 61%
    20:00 +25°C° 1,1 mm 2 m/s 742 mmHg 69%
    21:00 +23°C° 1,1 mm 2 m/s 742 mmHg 77%
    22:00 +21°C° 1,1 mm 2 m/s 743 mmHg 85%
    23:00 +20°C° 0,5 mm 2 m/s 743 mmHg 86%

    Après-demain, 23 Juillet, Lundi

    Heure Température Précipitation Vent Pression Humidité
    00:00 +20°C° 0,5 mm 2 m/s 743 mmHg 88%
    01:00 +19°C° 0,5 mm 2 m/s 743 mmHg 89%
    02:00 +19°C° 0,4 mm 2 m/s 743 mmHg 90%
    03:00 +19°C° 0,4 mm 2 m/s 743 mmHg 91%
    04:00 +19°C° 0,4 mm 2 m/s 743 mmHg 91%
    05:00 +19°C° 0,2 mm 2 m/s 743 mmHg 90%
    06:00 +20°C° 0,2 mm 3 m/s 743 mmHg 88%
    07:00 +21°C° 0,2 mm 3 m/s 743 mmHg 87%
    08:00 +22°C° 0,1 mm 4 m/s 743 mmHg 80%
    09:00 +23°C° 0,1 mm 4 m/s 743 mmHg 73%
    10:00 +26°C° 0,1 mm 5 m/s 743 mmHg 67%
    11:00 +26°C° 1,1 mm 5 m/s 743 mmHg 68%
    12:00 +26°C° 1,1 mm 5 m/s 743 mmHg 70%
    13:00 +27°C° 1,1 mm 5 m/s 743 mmHg 71%
    14:00 +26°C° 0,8 mm 5 m/s 743 mmHg 72%
    15:00 +26°C° 0,8 mm 5 m/s 743 mmHg 73%
    16:00 +26°C° 0,8 mm 4 m/s 743 mmHg 74%
    17:00 +25°C° 0,2 mm 4 m/s 743 mmHg 74%
    18:00 +25°C° 0,2 mm 4 m/s 743 mmHg 73%
    19:00 +25°C° 0,2 mm 3 m/s 744 mmHg 73%
    20:00 +23°C° 0,2 mm 4 m/s 744 mmHg 73%
    21:00 +22°C° 0,2 mm 4 m/s 744 mmHg 73%
    22:00 +22°C° 0,2 mm 4 m/s 744 mmHg 73%
    23:00 +21°C° 0 mm 4 m/s 745 mmHg 73%

    24 Juillet, Mardi

    Heure Température Précipitation Vent Pression Humidité
    00:00 +21°C° 0 mm 4 m/s 745 mmHg 74%
    01:00 +21°C° 0 mm 4 m/s 745 mmHg 74%
    02:00 +20°C° 0 mm 4 m/s 745 mmHg 76%
    03:00 +20°C° 0 mm 4 m/s 745 mmHg 77%
    04:00 +19°C° 0 mm 3 m/s 745 mmHg 78%
    05:00 +20°C° 0 mm 4 m/s 745 mmHg 74%
    06:00 +22°C° 0 mm 4 m/s 746 mmHg 70%
    07:00 +23°C° 0 mm 5 m/s 746 mmHg 65%
    08:00 +26°C° 0 mm 5 m/s 746 mmHg 58%
    09:00 +27°C° 0 mm 5 m/s 746 mmHg 51%
    10:00 +29°C° 0 mm 5 m/s 746 mmHg 44%
    11:00 +30°C° 0 mm 5 m/s 745 mmHg 42%
    12:00 +32°C° 0 mm 5 m/s 745 mmHg 40%
    13:00 +33°C° 0 mm 5 m/s 745 mmHg 37%
    14:00 +33°C° 0 mm 4 m/s 744 mmHg 38%
    15:00 +33°C° 0 mm 4 m/s 744 mmHg 38%
    16:00 +33°C° 0 mm 3 m/s 744 mmHg 39%
    17:00 +30°C° 0 mm 3 m/s 744 mmHg 45%
    18:00 +29°C° 0 mm 2 m/s 744 mmHg 51%
    19:00 +27°C° 0 mm 2 m/s 744 mmHg 56%
    20:00 +26°C° 0 mm 2 m/s 744 mmHg 60%
    21:00 +24°C° 0 mm 2 m/s 745 mmHg 64%
    22:00 +23°C° 0 mm 2 m/s 745 mmHg 67%
    23:00 +23°C° 0,1 mm 2 m/s 745 mmHg 71%

    25 Juillet, Mercredi

    Heure Température Précipitation Vent Pression Humidité
    00:00 +21°C° 0,1 mm 2 m/s 745 mmHg 75%
    01:00 +20°C° 0,1 mm 2 m/s 745 mmHg 79%
    02:00 +20°C° 0 mm 2 m/s 745 mmHg 82%
    03:00 +19°C° 0 mm 2 m/s 745 mmHg 85%
    04:00 +19°C° 0 mm 2 m/s 745 mmHg 87%
    05:00 +20°C° 0,1 mm 2 m/s 745 mmHg 84%
    06:00 +21°C° 0,1 mm 2 m/s 745 mmHg 80%
    07:00 +24°C° 0,1 mm 3 m/s 745 mmHg 76%
    08:00 +25°C° 0,3 mm 3 m/s 745 mmHg 69%
    09:00 +27°C° 0,3 mm 3 m/s 745 mmHg 62%
    10:00 +28°C° 0,3 mm 3 m/s 745 mmHg 55%
    11:00 +29°C° 0,1 mm 3 m/s 745 mmHg 50%
    12:00 +30°C° 0,1 mm 3 m/s 745 mmHg 44%
    13:00 +31°C° 0,1 mm 3 m/s 745 mmHg 39%
    14:00 +31°C° 0 mm 3 m/s 744 mmHg 40%
    15:00 +31°C° 0 mm 3 m/s 744 mmHg 40%
    16:00 +31°C° 0 mm 3 m/s 744 mmHg 41%
    17:00 +29°C° 0 mm 2 m/s 744 mmHg 46%
    18:00 +28°C° 0 mm 2 m/s 744 mmHg 50%
    19:00 +26°C° 0 mm 2 m/s 744 mmHg 55%
    20:00 +25°C° 0 mm 2 m/s 745 mmHg 58%
    21:00 +24°C° 0 mm 2 m/s 745 mmHg 61%
    22:00 +23°C° 0 mm 2 m/s 745 mmHg 64%
    23:00 +21°C° 0 mm 2 m/s 745 mmHg 68%

    26 Juillet, Jeudi

    Heure Température Précipitation Vent Pression Humidité
    00:00 +21°C° 0 mm 2 m/s 745 mmHg 71%
    01:00 +20°C° 0 mm 2 m/s 745 mmHg 74%
    02:00 +20°C° 0 mm 2 m/s 745 mmHg 76%
    03:00 +19°C° 0 mm 2 m/s 745 mmHg 78%
    04:00 +19°C° 0 mm 2 m/s 746 mmHg 80%
    05:00 +21°C° 0 mm 2 m/s 746 mmHg 76%
    06:00 +22°C° 0 mm 3 m/s 746 mmHg 71%
    07:00 +24°C° 0 mm 3 m/s 746 mmHg 66%
    08:00 +26°C° 0 mm 3 m/s 746 mmHg 59%
    09:00 +28°C° 0 mm 4 m/s 746 mmHg 52%
    10:00 +30°C° 0 mm 4 m/s 746 mmHg 44%
    11:00 +32°C° 0 mm 4 m/s 746 mmHg 42%
    12:00 +31°C° 0 mm 3 m/s 746 mmHg 39%
    13:00 +33°C° 0 mm 3 m/s 746 mmHg 37%
    14:00 +33°C° 0 mm 3 m/s 746 mmHg 36%
    15:00 +33°C° 0 mm 3 m/s 745 mmHg 35%
    16:00 +34°C° 0 mm 3 m/s 745 mmHg 35%
    17:00 +31°C° 0 mm 3 m/s 745 mmHg 41%
    18:00 +29°C° 0 mm 2 m/s 746 mmHg 46%
    19:00 +28°C° 0 mm 2 m/s 746 mmHg 52%
    20:00 +26°C° 0 mm 2 m/s 746 mmHg 55%
    21:00 +25°C° 0 mm 2 m/s 746 mmHg 59%
    22:00 +24°C° 0 mm 2 m/s 747 mmHg 62%
    23:00 +23°C° 0 mm 2 m/s 747 mmHg 65%
    Voir plus